Location: Prescott
(34.5400°N, 112.4680°W)
Time: 07:45:00
(UTC-07:00)

Tiangong 2 - Visible Passes

Search period start: 21 January 2018 00:00
Search period end: 31 January 2018 00:00
Orbit: 384 x 390 km, 42.8° (Epoch: 20 January)

Date Brightness Start Highest point End Pass type
(mag) Time Alt. Az. Time Alt. Az. Time Alt. Az.
21 Jan 2.7 06:33:42 18° NW 06:34:49 21° N 06:37:21 10° NE visible
22 Jan 3.7 05:37:50 16° NE 05:37:50 16° NE 05:38:42 10° NE visible
23 Jan 3.0 06:14:09 18° N 06:14:23 18° N 06:16:44 10° NE visible
24 Jan 3.0 06:50:29 10° NW 06:52:56 20° N 06:55:21 10° ENE visible
25 Jan 3.3 05:54:24 18° NNE 05:54:24 18° NNE 05:56:16 10° NE visible
26 Jan 2.8 06:30:38 15° NNW 06:32:26 24° NNE 06:35:07 10° ENE visible
27 Jan 3.6 05:34:37 17° NE 05:34:37 17° NE 05:35:55 10° ENE visible
28 Jan 2.2 06:10:53 27° NNW 06:11:51 34° NNE 06:14:49 10° E visible
29 Jan 4.2 05:14:55 14° ENE 05:14:55 14° ENE 05:15:39 10° ENE visible
29 Jan 1.1 06:47:11 13° WNW 06:49:57 74° SSW 06:53:08 10° SE visible
30 Jan 1.4 05:51:16 58° NE 05:51:16 58° NE 05:54:19 10° ESE visible
